[[[{"header":{"parameterUnit":"kt","parameterCategory":2,"dx":1,"dy":1,"la1":30.253999710083008,"la2":30.299108505249023,"lo1":-89.0895004272461,"lo2":-89.04439544677734,"nx":28,"ny":28,"refTime":"2022-09-19T21:00:00:Z","depth":0,"parameterNumber":1,"parameterNumberName":"U-component_of_WINDS"},"data":[-2.5989,-2.5997,-2.5994,-2.6002,-2.6001,-2.6005,-2.6006,-2.6006,-2.6005,-2.601,-2.6012,-2.6009,-2.6005,-2.6006,-2.6008,-2.6006,-2.6007,-2.6014,-2.601,-2.5983,-2.5979,-2.5975,-2.5974,-2.6014,-2.6014,-2.6039,-2.6039,-2.604,-2.5975,-2.5974,-2.5976,-2.5976,-2.5979,-2.5971,-2.597,-2.5973,-2.5976,-2.5975,-2.5976,-2.5979,-2.598,-2.5974,-2.5974,-2.5978,-2.5973,-2.5979,-2.5978,-2.5978,-2.5949,-2.5947,-2.5982,-2.5982,-2.5982,-2.5982,-2.5982,-2.5982,-2.5948,-2.5953,-2.595,-2.5953,-2.5952,-2.5952,-2.5955,-2.595,-2.5952,-2.5952,-2.5945,-2.5949,-2.5945,-2.5942,-2.5939,-2.5942,-2.5935,-2.5938,-2.5939,-2.594,-2.5943,-2.5911,-2.5941,-2.5941,-2.5941,-2.5941,-2.5941,0,-2.5927,-2.5924,-2.5925,-2.5926,-2.5927,-2.5926,-2.5925,-2.5927,-2.5915,-2.5917,-2.5918,-2.5918,-2.5918,-2.5919,-2.5917,-2.5912,-2.5902,-2.5899,-2.5902,-2.5906,-2.5911,-2.591,-2.5864,-2.5898,-2.5898,-2.5897,-2.5897,-2.5897,-2.59,-2.5905,-2.5899,-2.5901,-2.5899,-2.59,-2.5901,-2.589,-2.589,-2.5886,-2.589,-2.589,-2.5889,-2.5891,-2.5882,-2.5881,-2.5876,-2.589,-2.5875,-2.588,-2.5877,-2.5877,-2.5878,-2.5893,-2.5893,-2.5894,-2.5894,0,-2.5886,-2.5878,-2.5883,-2.5876,-2.5874,-2.588,-2.5873,-2.5876,-2.5869,-2.5872,-2.5872,-2.5861,-2.5862,-2.5851,-2.5848,-2.5842,-2.5852,-2.5847,-2.5855,-2.5853,-2.5866,-2.5865,-2.5905,-2.591,-2.5867,-2.5867,-2.5868,0,-2.586,-2.5866,-2.5854,-2.5857,-2.5864,-2.5852,-2.5858,-2.5853,-2.5848,-2.585,-2.5836,-2.5839,-2.5823,-2.5824,-2.5815,-2.5821,-2.582,-2.5816,-2.5813,-2.5817,-2.5818,-2.5816,-2.5814,-2.5806,-2.5805,-2.5805,-2.5805,0,-2.5839,-2.5837,-2.5843,-2.5841,-2.5831,-2.5834,-2.583,-2.5824,-2.5823,-2.582,-2.5819,-2.5816,-2.5814,-2.5812,-2.58,-2.5791,-2.5807,-2.5791,-2.5802,-2.5803,-2.5805,-2.5805,-2.5844,-2.5805,-2.5805,-2.5805,-2.5805,0,-2.5815,-2.5813,-2.5821,-2.5814,-2.5813,-2.5816,-2.5813,-2.5812,-2.5806,-2.58,-2.5797,-2.5785,-2.5788,-2.5774,-2.5778,-2.577,-2.5769,-2.5765,-2.5765,-2.5764,-2.5749,-2.5773,-2.5811,-2.5815,-2.5765,-2.5765,-2.5765,0,-2.5794,-2.5799,-2.5788,-2.5795,-2.5796,-2.5781,-2.5783,-2.5778,-2.577,-2.5769,-2.5761,-2.5759,-2.5746,-2.5743,-2.5747,-2.5737,-2.5748,-2.5735,-2.5734,-2.5735,-2.5738,-2.5773,-2.5781,-2.5804,-2.576,-2.5761,-2.5761,0,-2.5775,-2.5763,-2.5764,-2.5762,-2.5751,-2.5751,-2.5754,-2.5749,-2.5749,-2.5743,-2.5745,-2.5741,-2.5732,-2.5727,-2.5716,-2.572,-2.5741,-2.5708,-2.5708,-2.5715,-2.5756,-2.5765,-2.5769,-2.5732,-2.5733,-2.5733,-2.5757,0,-2.5744,-2.5744,-2.5749,-2.5741,-2.5738,-2.5741,-2.5727,-2.5726,-2.5717,-2.5708,-2.571,-2.5699,-2.5692,-2.5692,-2.5682,-2.5695,-2.569,-2.5679,-2.5663,-2.5686,-2.5694,-2.5697,-2.5654,-2.5653,-2.5653,-2.5652,0,0,-2.5726,-2.5725,-2.5711,-2.5712,-2.5709,-2.5691,-2.5696,-2.569,-2.5678,-2.5677,-2.5668,-2.5661,-2.5651,-2.5654,-2.566,-2.5657,-2.5658,-2.565,-2.5675,-2.5678,-2.568,-2.5689,-2.5692,-2.5651,-2.5651,-2.5651,-2.5651,0,-2.5711,-2.5704,-2.5708,-2.5702,-2.5692,-2.5682,-2.5683,-2.5669,-2.5663,-2.5664,-2.5647,-2.5646,-2.5638,-2.5632,-2.5627,-2.565,-2.5637,-2.5648,-2.5666,-2.5671,-2.5674,-2.5677,-2.5686,-2.569,-2.565,-2.565,-2.565,0,-2.5691,-2.5682,-2.5682,-2.5672,-2.5665,-2.5664,-2.5646,-2.5645,-2.5644,-2.5621,-2.5621,-2.5613,-2.5601,-2.5605,-2.5606,-2.5598,-2.5618,-2.5608,-2.561,-2.561,-2.5614,-2.5618,-2.5621,-2.5575,-2.5575,-2.5575,0,0,-2.568,-2.5679,-2.5663,-2.5668,-2.5665,-2.5649,-2.5646,-2.5635,-2.5626,-2.5622,-2.561,-2.5601,-2.5597,-2.5594,-2.5588,-2.5594,-2.5591,-2.5599,-2.5603,-2.5606,-2.5607,-2.5611,-2.5615,-2.5574,-2.5574,-2.5574,0,0,-2.5674,-2.5657,-2.5648,-2.5652,-2.5644,-2.5627,-2.563,-2.5619,-2.5613,-2.5611,-2.5591,-2.5587,-2.559,-2.5582,-2.5574,-2.5582,-2.5567,-2.5569,-2.5588,-2.5592,-2.5595,-2.5597,-2.5551,0,0,0,0,0,-2.5651,-2.5659,-2.5652,-2.565,-2.5636,-2.5632,-2.563,-2.5614,-2.5605,-2.5608,-2.5597,-2.5582,-2.5574,-2.5567,-2.5565,-2.5573,-2.5565,-2.5566,-2.5568,-2.5594,-2.5598,-2.5602,0,0,0,0,0,0,-2.565,-2.5648,-2.5652,-2.5636,-2.5632,-2.5632,-2.5612,-2.5608,-2.5604,-2.5602,-2.5585,-2.5582,-2.5567,-2.5567,-2.5565,-2.5573,-2.5552,-2.5565,-2.5567,-2.5568,-2.5595,-2.5599,-2.5602,0,0,0,0,0,-2.565,-2.5648,-2.563,-2.5635,-2.5633,-2.5614,-2.5612,-2.5608,-2.5605,-2.5586,-2.5582,-2.5593,-2.5568,-2.5566,-2.5566,-2.5574,-2.5553,-2.5552,-2.5566,-2.5567,-2.5568,-2.5597,0,0,0,0,0,0,-2.5649,-2.5644,-2.5629,-2.5627,-2.5631,-2.5614,-2.5611,-2.5608,-2.5589,-2.5585,-2.5593,-2.5591,-2.5569,-2.5567,-2.5565,-2.5576,-2.5553,-2.5553,-2.5553,-2.5567,-2.5568,-2.5569,0,0,0,0,0,0,-2.5645,-2.5643,-2.5628,-2.5623,-2.5621,-2.5614,-2.5611,-2.5608,-2.5589,-2.5597,-2.5595,-2.5593,-2.5571,-2.5567,-2.5566,-2.5562,-2.5554,-2.5554,-2.5553,-2.5553,-2.5568,-2.5568,0,0,0,0,0,0,-2.5644,-2.5643,-2.5623,-2.5622,-2.562,-2.5602,-2.5611,-2.5597,-2.5586,-2.5598,-2.5584,-2.5583,-2.5572,-2.557,-2.5567,-2.5563,-2.5562,-2.5554,-2.5554,-2.5553,-2.5553,0,0,0,0,0,0,0,-2.5643,-2.5658,-2.5638,-2.5621,-2.5619,-2.5614,-2.5614,-2.5613,-2.5586,-2.5585,-2.5584,-2.5584,-2.5557,-2.5556,-2.5556,-2.5565,0,0,-2.5554,-2.5554,0,0,0,0,0,0,0,0,-2.5658,-2.5658,-2.5638,-2.5637,-2.5637,-2.5614,-2.5614,-2.5613,-2.5586,-2.5585,-2.5585,-2.5584,-2.5557,-2.5556,-2.5556,0,0,0,0,0,0,0,0,0,0,0,0,0,0,0,-2.5638,-2.5637,0,-2.5614,-2.5614,-2.5613,-2.5585,-2.5585,-2.5585,-2.5584,-2.5556,-2.5556,-2.5556,0,0,0,0,0,0,0,0,0,0,0,0,0,0,0,0,0,0,0,0,0,0,0,0,0,0,0,0,0,0,0,0,0,0,0,0,0,0,0,0,0,0,0,0,0,0,0,0,0,0,0,0,0,0,0,0,0,0,0,0,0,0,0,0,0,0,0,0,0]}],[{"header":{"parameterUnit":"kt","parameterCategory":2,"dx":1,"dy":1,"la1":30.253999710083008,"la2":30.299108505249023,"lo1":-89.0895004272461,"lo2":-89.04439544677734,"nx":28,"ny":28,"refTime":"2022-09-19T21:00:00:Z","depth":0,"parameterNumber":2,"parameterNumberName":"V-component_of_WINDS"},"data":[-4.1424,-4.1475,-4.1472,-4.1528,-4.1534,-4.1572,-4.1584,-4.1599,-4.1609,-4.1652,-4.1676,-4.1676,-4.1684,-4.171,-4.1734,-4.1733,-4.1745,-4.1765,-4.1761,-4.1672,-4.1659,-4.1647,-4.1636,-4.1767,-4.1767,-4.1855,-4.1856,-4.1856,-4.136,-4.1367,-4.1396,-4.1422,-4.1446,-4.1424,-4.1442,-4.1463,-4.1496,-4.1509,-4.1532,-4.1569,-4.1596,-4.1597,-4.1622,-4.1645,-4.1636,-4.1652,-4.1651,-4.1653,-4.1557,-4.1545,-4.1659,-4.1659,-4.1659,-4.1659,-4.1659,-4.1659,-4.1242,-4.1273,-4.1287,-4.1318,-4.1329,-4.1346,-4.1374,-4.1374,-4.1401,-4.1429,-4.1417,-4.1454,-4.1465,-4.1493,-4.1501,-4.1529,-4.151,-4.1526,-4.1531,-4.1536,-4.1542,-4.142,-4.1532,-4.1532,-4.1532,-4.1531,-4.1531,0,-4.1156,-4.1152,-4.1179,-4.1205,-4.1227,-4.1246,-4.1263,-4.128,-4.1267,-4.1289,-4.1321,-4.1338,-4.1372,-4.1401,-4.1423,-4.1427,-4.1406,-4.1403,-4.1414,-4.1422,-4.1426,-4.1426,-4.1272,-4.14,-4.1399,-4.1398,-4.1397,-4.1397,-4.1039,-4.1074,-4.1087,-4.1106,-4.1115,-4.1146,-4.1163,-4.1149,-4.1168,-4.1185,-4.1212,-4.124,-4.1262,-4.1312,-4.131,-4.1335,-4.1325,-4.1374,-4.1328,-4.1334,-4.1328,-4.1327,-4.1331,-4.1384,-4.1386,-4.1387,-4.1388,0,-4.0974,-4.0968,-4.1021,-4.1029,-4.1032,-4.107,-4.1076,-4.1104,-4.1101,-4.1139,-4.1147,-4.1142,-4.1172,-4.1162,-4.1194,-4.1188,-4.1248,-4.1237,-4.1245,-4.1243,-4.1288,-4.1284,-4.1431,-4.145,-4.1312,-4.1313,-4.1314,0,-4.0873,-4.0919,-4.0908,-4.0939,-4.099,-4.0975,-4.1025,-4.1027,-4.1037,-4.1067,-4.1041,-4.107,-4.1052,-4.1079,-4.107,-4.1117,-4.1122,-4.1121,-4.1118,-4.1125,-4.1125,-4.1135,-4.113,-4.1109,-4.1108,-4.1107,-4.1107,0,-4.0773,-4.082,-4.0871,-4.088,-4.0893,-4.0917,-4.0923,-4.0933,-4.095,-4.0969,-4.098,-4.1003,-4.1017,-4.1035,-4.1023,-4.0993,-4.108,-4.1035,-4.1078,-4.1079,-4.11,-4.1099,-4.123,-4.1106,-4.1105,-4.1105,-4.1105,0,-4.0691,-4.0713,-4.0786,-4.0797,-4.081,-4.0842,-4.0865,-4.089,-4.0903,-4.09,-4.0915,-4.0897,-4.0936,-4.0893,-4.0947,-4.091,-4.0925,-4.0926,-4.0929,-4.0934,-4.0886,-4.0964,-4.1088,-4.1101,-4.0936,-4.0934,-4.0933,0,-4.058,-4.0652,-4.064,-4.0709,-4.0741,-4.0712,-4.0747,-4.0759,-4.0758,-4.0784,-4.0781,-4.081,-4.0776,-4.0784,-4.0811,-4.081,-4.0857,-4.0803,-4.0841,-4.0843,-4.0841,-4.0954,-4.0977,-4.1061,-4.0915,-4.0917,-4.0918,0,-4.0493,-4.0509,-4.0522,-4.0533,-4.0547,-4.0573,-4.0613,-4.064,-4.0658,-4.0673,-4.0707,-4.0746,-4.0723,-4.0735,-4.0723,-4.0752,-4.0825,-4.0723,-4.0723,-4.0743,-4.0904,-4.0925,-4.0939,-4.081,-4.0812,-4.0814,-4.0903,0,-4.0374,-4.0409,-4.0443,-4.0468,-4.0486,-4.0528,-4.0519,-4.0539,-4.0526,-4.0524,-4.0572,-4.0578,-4.0604,-4.0616,-4.0603,-4.0673,-4.066,-4.0634,-4.0593,-4.0667,-4.0696,-4.0708,-4.055,-4.0549,-4.0547,-4.0547,0,0,-4.0269,-4.0319,-4.0305,-4.0344,-4.0359,-4.0328,-4.0374,-4.0384,-4.0406,-4.0417,-4.0393,-4.0451,-4.0457,-4.0516,-4.0538,-4.0547,-4.0559,-4.0534,-4.0631,-4.0641,-4.0649,-4.0681,-4.0693,-4.0545,-4.0544,-4.0544,-4.0543,0,-4.0225,-4.0234,-4.028,-4.029,-4.0305,-4.0301,-4.0312,-4.0321,-4.0322,-4.0368,-4.0342,-4.0369,-4.0414,-4.0425,-4.0436,-4.0526,-4.0504,-4.0534,-4.0587,-4.062,-4.0631,-4.0641,-4.0674,-4.0686,-4.0541,-4.0541,-4.0541,0,-4.0139,-4.0147,-4.0168,-4.02,-4.021,-4.0243,-4.0197,-4.0233,-4.0257,-4.022,-4.0267,-4.0269,-4.0282,-4.0338,-4.0363,-4.0342,-4.0455,-4.0417,-4.0423,-4.0426,-4.0459,-4.0472,-4.0483,-4.033,-4.0329,-4.0328,0,0,-4.0102,-4.0134,-4.0137,-4.019,-4.0198,-4.0192,-4.0208,-4.0197,-4.021,-4.0215,-4.0218,-4.0231,-4.0257,-4.0275,-4.0299,-4.0361,-4.0363,-4.0391,-4.0401,-4.0409,-4.0417,-4.0451,-4.0464,-4.0326,-4.0326,-4.0326,0,0,-4.0084,-4.0091,-4.0076,-4.0136,-4.015,-4.0156,-4.0188,-4.017,-4.0191,-4.0185,-4.0167,-4.0169,-4.0221,-4.0224,-4.0191,-4.0284,-4.0243,-4.025,-4.028,-4.0293,-4.0303,-4.0302,-4.0145,0,0,0,0,0,-4.0034,-4.009,-4.0076,-4.0085,-4.0125,-4.0164,-4.0168,-4.0156,-4.0127,-4.0153,-4.0152,-4.0128,-4.0202,-4.0173,-4.0181,-4.0219,-4.0292,-4.0298,-4.0304,-4.0357,-4.0371,-4.0382,0,0,0,0,0,0,-4.0037,-4.0048,-4.0075,-4.0084,-4.0092,-4.0161,-4.0111,-4.0109,-4.0124,-4.0119,-4.0129,-4.0128,-4.0117,-4.0167,-4.0175,-4.0211,-4.0142,-4.0295,-4.03,-4.0304,-4.0362,-4.0373,-4.0382,0,0,0,0,0,-4.004,-4.0049,-4.0117,-4.0083,-4.009,-4.0087,-4.0109,-4.0107,-4.0118,-4.0117,-4.0115,-4.0107,-4.0118,-4.0124,-4.0172,-4.0208,-4.0137,-4.0139,-4.0298,-4.0302,-4.0305,-4.0367,0,0,0,0,0,0,-4.0042,-4.0047,-4.0118,-4.012,-4.0061,-4.0082,-4.0085,-4.0105,-4.0115,-4.0114,-4.0094,-4.009,-4.012,-4.0124,-4.0128,-4.0208,-4.0132,-4.0135,-4.0137,-4.0301,-4.0304,-4.0307,0,0,0,0,0,0,-4.0042,-4.0049,-4.0119,-4.0092,-4.0091,-4.0079,-4.0081,-4.012,-4.0115,-4.0091,-4.0088,-4.0092,-4.0113,-4.0124,-4.0127,-4.0188,-4.0129,-4.0132,-4.0134,-4.0135,-4.0304,-4.0306,0,0,0,0,0,0,-4.0044,-4.005,-4.0092,-4.0091,-4.0089,-4.0109,-4.0112,-4.0153,-4.0094,-4.0091,-4.0088,-4.0085,-4.0114,-4.0117,-4.0127,-4.0186,-4.0187,-4.0129,-4.0131,-4.0132,-4.0133,0,0,0,0,0,0,0,-4.0046,-4.0012,-4.0108,-4.009,-4.0088,-4.0137,-4.0137,-4.0138,-4.0093,-4.0091,-4.0088,-4.0086,-4.0112,-4.0115,-4.0119,-4.0185,0,0,-4.0128,-4.013,0,0,0,0,0,0,0,0,-4.0009,-4.0011,-4.0108,-4.0108,-4.0108,-4.0137,-4.0137,-4.0138,-4.0093,-4.0091,-4.0089,-4.0087,-4.0113,-4.0116,-4.0118,0,0,0,0,0,0,0,0,0,0,0,0,0,0,0,-4.0108,-4.0108,0,-4.0137,-4.0137,-4.0138,-4.0092,-4.0091,-4.0089,-4.0088,-4.0114,-4.0116,-4.0118,0,0,0,0,0,0,0,0,0,0,0,0,0,0,0,0,0,0,0,0,0,0,0,0,0,0,0,0,0,0,0,0,0,0,0,0,0,0,0,0,0,0,0,0,0,0,0,0,0,0,0,0,0,0,0,0,0,0,0,0,0,0,0,0,0,0,0,0,0]}]]]